,,,PA_Meas_PMT16A,,PR_Meas_QMR101_102,,RH_Meas_QMH101,,SR_Meas_QMS101,,TA_Meas_QMH101,,GenWind,,GenWind,
date,time,status,PA,status,PR,status,RH,status,SR,status,TA,status,DirAvg,status,SpdAvg,
2013-02-06, 00:00:05,VALID,1012.54,VALID,0.5,VALID,104,VALID,0,VALID,24.532,VALID,177,VALID,0,
2013-02-06, 00:01:05,VALID,1012.55,VALID,0.5,VALID,104,VALID,0,VALID,24.4911,VALID,172,VALID,0,
2013-02-06, 00:02:05,VALID,1012.58,VALID,0.5,VALID,104,VALID,0,VALID,24.5125,VALID,172,VALID,0,
2013-02-06, 00:03:05,VALID,1012.55,VALID,0.5,VALID,104,VALID,0,VALID,24.493,VALID,172,VALID,0,
2013-02-06, 00:04:05,VALID,1012.52,VALID,0.5,VALID,104,VALID,0,VALID,24.4345,VALID,172,VALID,0,
2013-02-06, 00:05:05,VALID,1012.51,VALID,0.5,VALID,104,VALID,0,VALID,24.454,VALID,78,VALID,0,
2013-02-06, 00:06:05,VALID,1012.49,VALID,0,VALID,104,VALID,0,VALID,24.454,VALID,64,VALID,0,
2013-02-06, 00:07:05,VALID,1012.49,VALID,0.5,VALID,104,VALID,0,VALID,24.454,VALID,63,VALID,0,
2013-02-06, 00:08:05,VALID,1012.44,VALID,0.5,VALID,104,VALID,0,VALID,24.4345,VALID,58,VALID,0,
2013-02-06, 00:09:05,VALID,1012.43,VALID,0.5,VALID,104,VALID,0,VALID,24.3956,VALID,63,VALID,0,
2013-02-06, 00:10:05,VALID,1012.43,VALID,0,VALID,104,VALID,0,VALID,24.3761,VALID,58,VALID,0,
2013-02-06, 00:11:05,VALID,1012.42,VALID,0.5,VALID,104,VALID,0,VALID,24.3761,VALID,78,VALID,0,
2013-02-06, 00:12:05,VALID,1012.43,VALID,0.5,VALID,104,VALID,0,VALID,24.3566,VALID,67,VALID,0,
2013-02-06, 00:13:05,VALID,1012.47,VALID,0.5,VALID,104,VALID,0,VALID,24.3566,VALID,67,VALID,0,
2013-02-06, 00:14:05,VALID,1012.46,VALID,0.5,VALID,104,VALID,0,VALID,24.3371,VALID,60,VALID,0,
2013-02-06, 00:15:05,VALID,1012.46,VALID,1,VALID,104,VALID,0,VALID,24.3158,VALID,57,VALID,0,
2013-02-06, 00:16:05,VALID,1012.43,VALID,1,VALID,104,VALID,0,VALID,24.3176,VALID,62,VALID,0,
2013-02-06, 00:17:05,VALID,1012.4,VALID,1,VALID,104,VALID,0,VALID,24.2768,VALID,60,VALID,0,
2013-02-06, 00:18:05,VALID,1012.36,VALID,0.5,VALID,104,VALID,0,VALID,24.2786,VALID,81,VALID,0,
2013-02-06, 00:19:05,VALID,1012.39,VALID,0.5,VALID,104,VALID,0,VALID,24.2591,VALID,34,VALID,0,
2013-02-06, 00:20:05,VALID,1012.38,VALID,0.5,VALID,104,VALID,0,VALID,24.2591,VALID,18,VALID,0,
2013-02-06, 00:21:05,VALID,1012.37,VALID,0,VALID,104,VALID,0,VALID,24.2573,VALID,18,VALID,0,
2013-02-06, 00:22:05,VALID,1012.36,VALID,0.5,VALID,104,VALID,0,VALID,24.2786,VALID,18,VALID,0,
2013-02-06, 00:23:05,VALID,1012.38,VALID,0,VALID,104,VALID,0.112112,VALID,24.2786,VALID,18,VALID,0,
2013-02-06, 00:24:05,VALID,1012.35,VALID,0,VALID,104,VALID,0,VALID,24.2786,VALID,116,VALID,0,
2013-02-06, 00:25:05,VALID,1012.39,VALID,0,VALID,104,VALID,0.112112,VALID,24.2981,VALID,116,VALID,0,
2013-02-06, 00:26:05,VALID,1012.35,VALID,0.5,VALID,104,VALID,0,VALID,24.2981,VALID,157,VALID,0,
2013-02-06, 00:27:05,VALID,1012.32,VALID,0,VALID,104,VALID,0,VALID,24.2981,VALID,157,VALID,0,
2013-02-06, 00:28:05,VALID,1012.29,VALID,0,VALID,104,VALID,0,VALID,24.3176,VALID,154,VALID,0,
2013-02-06, 00:29:05,VALID,1012.26,VALID,0,VALID,104,VALID,0,VALID,24.2981,VALID,83,VALID,0,
2013-02-06, 00:30:05,VALID,1012.21,VALID,0,VALID,104,VALID,0,VALID,24.3176,VALID,83,VALID,0,
2013-02-06, 00:31:05,VALID,1012.18,VALID,0,VALID,104,VALID,0,VALID,24.2981,VALID,104,VALID,0,
2013-02-06, 00:32:05,VALID,1012.15,VALID,0,VALID,104,VALID,0.112112,VALID,24.2768,VALID,107,VALID,0,
2013-02-06, 00:33:05,VALID,1012.13,VALID,0,VALID,104,VALID,0,VALID,24.2981,VALID,107,VALID,0,
2013-02-06, 00:34:05,VALID,1012.09,VALID,0,VALID,104,VALID,0,VALID,24.2981,VALID,107,VALID,0,
2013-02-06, 00:35:05,VALID,1012.05,VALID,0,VALID,104,VALID,0.112112,VALID,24.3176,VALID,106,VALID,0,
2013-02-06, 00:36:05,VALID,1012.05,VALID,0.5,VALID,104,VALID,0,VALID,24.2981,VALID,107,VALID,0,
2013-02-06, 00:37:05,VALID,1011.97,VALID,0,VALID,104,VALID,0,VALID,24.2981,VALID,107,VALID,0,
2013-02-06, 00:38:05,VALID,1011.98,VALID,0,VALID,104,VALID,0,VALID,24.2981,VALID,106,VALID,0,
2013-02-06, 00:39:05,VALID,1011.95,VALID,0,VALID,104,VALID,0.112112,VALID,24.2981,VALID,106,VALID,0,
2013-02-06, 00:40:05,VALID,1011.96,VALID,0,VALID,104,VALID,0,VALID,24.2786,VALID,107,VALID,0,
2013-02-06, 00:41:05,VALID,1011.97,VALID,0,VALID,104,VALID,0,VALID,24.2396,VALID,106,VALID,0,
2013-02-06, 00:42:05,VALID,1011.98,VALID,0,VALID,104,VALID,0,VALID,24.2396,VALID,107,VALID,0,
2013-02-06, 00:43:05,VALID,1011.96,VALID,0,VALID,104,VALID,0,VALID,24.2202,VALID,107,VALID,0,
2013-02-06, 00:44:05,VALID,1011.98,VALID,0,VALID,104,VALID,0.112112,VALID,24.1988,VALID,107,VALID,0,
2013-02-06, 00:45:05,VALID,1011.97,VALID,0,VALID,104,VALID,0.112112,VALID,24.2202,VALID,107,VALID,0,
2013-02-06, 00:46:05,VALID,1011.98,VALID,0.5,VALID,104,VALID,0,VALID,24.2396,VALID,107,VALID,0,
2013-02-06, 00:47:05,VALID,1011.97,VALID,0,VALID,104,VALID,0.112112,VALID,24.2202,VALID,106,VALID,0,
2013-02-06, 00:48:05,VALID,1011.98,VALID,0,VALID,104,VALID,0.112112,VALID,24.2396,VALID,106,VALID,0,
2013-02-06, 00:49:05,VALID,1011.94,VALID,0,VALID,104,VALID,0,VALID,24.2202,VALID,106,VALID,0,
2013-02-06, 00:50:05,VALID,1011.94,VALID,0,VALID,104,VALID,0,VALID,24.1988,VALID,106,VALID,0,
2013-02-06, 00:51:05,VALID,1011.92,VALID,0,VALID,104,VALID,0,VALID,24.2202,VALID,107,VALID,0,
2013-02-06, 00:52:05,VALID,1011.89,VALID,0,VALID,104,VALID,0.112112,VALID,24.2396,VALID,107,VALID,0,
2013-02-06, 00:53:05,VALID,1011.87,VALID,0,VALID,104,VALID,0.112112,VALID,24.1988,VALID,107,VALID,0,
2013-02-06, 00:54:05,VALID,1011.85,VALID,0,VALID,104,VALID,0.112112,VALID,24.2202,VALID,106,VALID,0,
2013-02-06, 00:55:05,VALID,1011.85,VALID,0,VALID,104,VALID,0,VALID,24.2202,VALID,107,VALID,0,
2013-02-06, 00:56:05,VALID,1011.85,VALID,0,VALID,104,VALID,0,VALID,24.1812,VALID,107,VALID,0,
2013-02-06, 00:57:05,VALID,1011.88,VALID,0,VALID,104,VALID,0,VALID,24.2007,VALID,107,VALID,0,
2013-02-06, 00:58:05,VALID,1011.86,VALID,0,VALID,104,VALID,0,VALID,24.1599,VALID,107,VALID,0,
2013-02-06, 00:59:05,VALID,1011.86,VALID,0.5,VALID,104,VALID,0,VALID,24.1812,VALID,107,VALID,0,
2013-02-06, 01:00:05,VALID,1011.87,VALID,0,VALID,104,VALID,0.112112,VALID,24.1617,VALID,107,VALID,0,
2013-02-06, 01:01:05,VALID,1011.86,VALID,0,VALID,104,VALID,0,VALID,24.1422,VALID,107,VALID,0,
2013-02-06, 01:02:05,VALID,1011.82,VALID,0,VALID,104,VALID,0,VALID,24.1812,VALID,107,VALID,0,
2013-02-06, 01:03:05,VALID,1011.83,VALID,0,VALID,104,VALID,0,VALID,24.1404,VALID,107,VALID,0,
2013-02-06, 01:04:05,VALID,1011.81,VALID,0,VALID,104,VALID,0,VALID,24.1617,VALID,107,VALID,0,
2013-02-06, 01:05:05,VALID,1011.8,VALID,0,VALID,104,VALID,0.112112,VALID,24.1422,VALID,107,VALID,0,
2013-02-06, 01:06:05,VALID,1011.77,VALID,0,VALID,104,VALID,0,VALID,24.1422,VALID,107,VALID,0,
2013-02-06, 01:07:05,VALID,1011.77,VALID,0,VALID,104,VALID,0,VALID,24.1617,VALID,107,VALID,0,
2013-02-06, 01:08:05,VALID,1011.73,VALID,0,VALID,104,VALID,0,VALID,24.1617,VALID,107,VALID,0,
2013-02-06, 01:09:05,VALID,1011.73,VALID,0,VALID,104,VALID,0,VALID,24.1422,VALID,107,VALID,0,
2013-02-06, 01:10:05,VALID,1011.68,VALID,0,VALID,104,VALID,0.112112,VALID,24.1422,VALID,107,VALID,0,
2013-02-06, 01:11:05,VALID,1011.67,VALID,0,VALID,104,VALID,0,VALID,24.1617,VALID,107,VALID,0,
2013-02-06, 01:12:05,VALID,1011.68,VALID,0,VALID,104,VALID,0,VALID,24.1404,VALID,107,VALID,0,
2013-02-06, 01:13:05,VALID,1011.65,VALID,0,VALID,104,VALID,0.112112,VALID,24.1617,VALID,107,VALID,0,
2013-02-06, 01:14:05,VALID,1011.63,VALID,0,VALID,104,VALID,0,VALID,24.1617,VALID,107,VALID,0,
2013-02-06, 01:15:05,VALID,1011.64,VALID,0,VALID,104,VALID,0,VALID,24.1617,VALID,107,VALID,0,
2013-02-06, 01:16:05,VALID,1011.66,VALID,0,VALID,104,VALID,0,VALID,24.1422,VALID,107,VALID,0,
2013-02-06, 01:17:05,VALID,1011.66,VALID,0,VALID,104,VALID,0,VALID,24.1617,VALID,107,VALID,0,
2013-02-06, 01:18:05,VALID,1011.65,VALID,0,VALID,104,VALID,0,VALID,24.1812,VALID,107,VALID,0,
2013-02-06, 01:19:05,VALID,1011.66,VALID,0,VALID,104,VALID,0,VALID,24.1812,VALID,107,VALID,0,
2013-02-06, 01:20:05,VALID,1011.62,VALID,0,VALID,104,VALID,0,VALID,24.2007,VALID,107,VALID,0,
2013-02-06, 01:21:05,VALID,1011.62,VALID,0,VALID,104,VALID,0,VALID,24.1793,VALID,107,VALID,0,
2013-02-06, 01:22:05,VALID,1011.57,VALID,0,VALID,104,VALID,0,VALID,24.2007,VALID,107,VALID,0,
2013-02-06, 01:23:05,VALID,1011.56,VALID,0,VALID,104,VALID,0,VALID,24.222,VALID,107,VALID,0,
2013-02-06, 01:24:05,VALID,1011.52,VALID,0.5,VALID,104,VALID,0,VALID,24.2007,VALID,107,VALID,0,
2013-02-06, 01:25:05,VALID,1011.52,VALID,0,VALID,104,VALID,0,VALID,24.2202,VALID,107,VALID,0,
2013-02-06, 01:26:05,VALID,1011.52,VALID,0,VALID,104,VALID,0,VALID,24.2396,VALID,107,VALID,0,
2013-02-06, 01:27:05,VALID,1011.47,VALID,0,VALID,104,VALID,0.112112,VALID,24.2007,VALID,107,VALID,0,
2013-02-06, 01:28:05,VALID,1011.46,VALID,0,VALID,104,VALID,0,VALID,24.2007,VALID,107,VALID,0,
2013-02-06, 01:29:05,VALID,1011.42,VALID,0,VALID,104,VALID,0,VALID,24.2007,VALID,107,VALID,0,
2013-02-06, 01:30:05,VALID,1011.41,VALID,0,VALID,104,VALID,0,VALID,24.2007,VALID,107,VALID,0,
2013-02-06, 01:31:05,VALID,1011.41,VALID,0,VALID,104,VALID,0,VALID,24.2202,VALID,107,VALID,0,
2013-02-06, 01:32:05,VALID,1011.38,VALID,0,VALID,104,VALID,0,VALID,24.2396,VALID,107,VALID,0,
2013-02-06, 01:33:05,VALID,1011.37,VALID,0,VALID,104,VALID,0,VALID,24.2183,VALID,107,VALID,0,
2013-02-06, 01:34:05,VALID,1011.38,VALID,0,VALID,104,VALID,0,VALID,24.2591,VALID,107,VALID,0,
2013-02-06, 01:35:05,VALID,1011.37,VALID,0,VALID,104,VALID,0,VALID,24.2396,VALID,107,VALID,0,
2013-02-06, 01:36:05,VALID,1011.36,VALID,0,VALID,104,VALID,0,VALID,24.1988,VALID,113,VALID,0,
2013-02-06, 01:37:05,VALID,1011.35,VALID,0.5,VALID,104,VALID,0,VALID,24.2202,VALID,102,VALID,0,
2013-02-06, 01:38:05,VALID,1011.32,VALID,0,VALID,104,VALID,0,VALID,24.2202,VALID,207,VALID,0,
2013-02-06, 01:39:05,VALID,1011.28,VALID,0,VALID,104,VALID,0,VALID,24.2202,VALID,207,VALID,0,
2013-02-06, 01:40:05,VALID,1011.27,VALID,0,VALID,104,VALID,0,VALID,24.2396,VALID,202,VALID,0,
2013-02-06, 01:41:05,VALID,1011.25,VALID,0,VALID,104,VALID,0,VALID,24.2378,VALID,195,VALID,0,
2013-02-06, 01:42:05,VALID,1011.23,VALID,0,VALID,104,VALID,0,VALID,24.2202,VALID,282,VALID,0,
2013-02-06, 01:43:05,VALID,1011.21,VALID,0,VALID,104,VALID,0.112112,VALID,24.2396,VALID,255,VALID,0,
2013-02-06, 01:44:05,VALID,1011.2,VALID,0,VALID,104,VALID,0,VALID,24.2396,VALID,188,VALID,0,
2013-02-06, 01:45:05,VALID,1011.18,VALID,0,VALID,104,VALID,0,VALID,24.1812,VALID,281,VALID,0,
2013-02-06, 01:46:05,VALID,1011.14,VALID,0.5,VALID,104,VALID,0,VALID,24.1599,VALID,285,VALID,0,
2013-02-06, 01:47:05,VALID,1011.14,VALID,0,VALID,104,VALID,0,VALID,24.1617,VALID,345,VALID,0,
2013-02-06, 01:48:05,VALID,1011.15,VALID,0,VALID,104,VALID,0.112112,VALID,24.1422,VALID,308,VALID,0,
2013-02-06, 01:49:05,VALID,1011.13,VALID,0,VALID,104,VALID,0,VALID,24.1014,VALID,268,VALID,0,
2013-02-06, 01:50:05,VALID,1011.13,VALID,0.5,VALID,104,VALID,0,VALID,24.1227,VALID,232,VALID,0,
2013-02-06, 01:51:05,VALID,1011.13,VALID,0,VALID,104,VALID,0,VALID,24.1227,VALID,232,VALID,0,
2013-02-06, 01:52:05,VALID,1011.13,VALID,0,VALID,104,VALID,0,VALID,24.1014,VALID,260,VALID,0,
2013-02-06, 01:53:05,VALID,1011.11,VALID,0,VALID,104,VALID,0,VALID,24.1014,VALID,262,VALID,0,
2013-02-06, 01:54:05,VALID,1011.07,VALID,0,VALID,104,VALID,0,VALID,24.1032,VALID,313,VALID,0,
2013-02-06, 01:55:05,VALID,1011.1,VALID,0,VALID,104,VALID,0.112112,VALID,24.0837,VALID,317,VALID,0,
2013-02-06, 01:56:05,VALID,1011.09,VALID,0,VALID,104,VALID,0,VALID,24.1032,VALID,302,VALID,0,
2013-02-06, 01:57:05,VALID,1011.08,VALID,0,VALID,104,VALID,0,VALID,24.0819,VALID,296,VALID,0,
2013-02-06, 01:58:05,VALID,1011.06,VALID,0,VALID,104,VALID,0,VALID,24.1032,VALID,311,VALID,0,
2013-02-06, 01:59:05,VALID,1011.02,VALID,0,VALID,104,VALID,0,VALID,24.1032,VALID,299,VALID,0,
2013-02-06, 02:00:05,VALID,1011.01,VALID,0,VALID,104,VALID,0.112112,VALID,24.1032,VALID,299,VALID,0,
2013-02-06, 02:01:05,VALID,1010.96,VALID,0,VALID,104,VALID,0,VALID,24.0856,VALID,320,VALID,0,
2013-02-06, 02:02:05,VALID,1010.92,VALID,0,VALID,104,VALID,0,VALID,24.0837,VALID,311,VALID,0,
2013-02-06, 02:03:05,VALID,1010.9,VALID,0,VALID,104,VALID,0,VALID,24.0837,VALID,308,VALID,0,
2013-02-06, 02:04:05,VALID,1010.86,VALID,0,VALID,104,VALID,0,VALID,24.0837,VALID,305,VALID,0,
2013-02-06, 02:05:05,VALID,1010.83,VALID,0,VALID,104,VALID,0,VALID,24.0837,VALID,313,VALID,0,
2013-02-06, 02:06:04,VALID,1010.79,VALID,0,VALID,104,VALID,0,VALID,24.004,VALID,284,VALID,0,
2013-02-06, 02:07:04,VALID,1010.8,VALID,0,VALID,104,VALID,0,VALID,24.0058,VALID,309,VALID,0,
2013-02-06, 02:08:04,VALID,1010.77,VALID,0,VALID,104,VALID,0,VALID,23.9845,VALID,277,VALID,0,
2013-02-06, 02:09:04,VALID,1010.74,VALID,0,VALID,104,VALID,0,VALID,24.0058,VALID,306,VALID,0,
2013-02-06, 02:10:04,VALID,1010.74,VALID,0,VALID,104,VALID,0,VALID,23.9668,VALID,285,VALID,0,
2013-02-06, 02:11:04,VALID,1010.74,VALID,0,VALID,104,VALID,0,VALID,23.9668,VALID,317,VALID,0,
2013-02-06, 02:12:04,VALID,1010.73,VALID,0,VALID,104,VALID,0,VALID,23.9863,VALID,313,VALID,0,
2013-02-06, 02:13:04,VALID,1010.7,VALID,0,VALID,104,VALID,0,VALID,23.9473,VALID,313,VALID,0,
2013-02-06, 02:14:04,VALID,1010.68,VALID,0,VALID,104,VALID,0,VALID,23.9668,VALID,320,VALID,0,
2013-02-06, 02:15:04,VALID,1010.67,VALID,0,VALID,104,VALID,0,VALID,23.9473,VALID,292,VALID,0,
2013-02-06, 02:16:04,VALID,1010.61,VALID,0,VALID,104,VALID,0,VALID,23.9668,VALID,333,VALID,0,
2013-02-06, 02:17:04,VALID,1010.6,VALID,0,VALID,104,VALID,0,VALID,23.9473,VALID,303,VALID,0,
2013-02-06, 02:18:04,VALID,1010.58,VALID,0,VALID,104,VALID,0,VALID,23.9668,VALID,310,VALID,0,
2013-02-06, 02:19:04,VALID,1010.55,VALID,0,VALID,104,VALID,0,VALID,23.9473,VALID,317,VALID,0,
2013-02-06, 02:20:04,VALID,1010.51,VALID,0,VALID,104,VALID,0,VALID,23.9473,VALID,317,VALID,0,
2013-02-06, 02:21:04,VALID,1010.51,VALID,0,VALID,104,VALID,0,VALID,23.9473,VALID,357,VALID,0,
2013-02-06, 02:22:04,VALID,1010.51,VALID,0,VALID,104,VALID,0,VALID,23.9473,VALID,295,VALID,0,
2013-02-06, 02:23:04,VALID,1010.51,VALID,0,VALID,104,VALID,0,VALID,23.9278,VALID,316,VALID,0,
2013-02-06, 02:24:04,VALID,1010.51,VALID,0,VALID,104,VALID,0,VALID,23.9278,VALID,329,VALID,0,
2013-02-06, 02:25:04,VALID,1010.51,VALID,0,VALID,104,VALID,0,VALID,23.9473,VALID,351,VALID,0,
2013-02-06, 02:26:04,VALID,1010.5,VALID,0,VALID,104,VALID,0,VALID,23.9278,VALID,340,VALID,0,
2013-02-06, 02:27:04,VALID,1010.53,VALID,0,VALID,104,VALID,0,VALID,23.9491,VALID,340,VALID,0,
2013-02-06, 02:28:04,VALID,1010.55,VALID,0,VALID,104,VALID,0,VALID,23.9278,VALID,339,VALID,0,
2013-02-06, 02:29:04,VALID,1010.53,VALID,0,VALID,104,VALID,0,VALID,23.8871,VALID,340,VALID,0,
2013-02-06, 02:30:04,VALID,1010.56,VALID,0,VALID,104,VALID,0,VALID,23.9084,VALID,327,VALID,0,
2013-02-06, 02:31:04,VALID,1010.52,VALID,0,VALID,104,VALID,0,VALID,23.9084,VALID,348,VALID,0,
2013-02-06, 02:32:04,VALID,1010.55,VALID,0,VALID,104,VALID,0,VALID,23.9084,VALID,343,VALID,0,
2013-02-06, 02:33:04,VALID,1010.55,VALID,0,VALID,104,VALID,0,VALID,23.8889,VALID,360,VALID,0,
2013-02-06, 02:34:04,VALID,1010.52,VALID,0,VALID,104,VALID,0,VALID,23.8676,VALID,359,VALID,0,
2013-02-06, 02:35:04,VALID,1010.54,VALID,0,VALID,104,VALID,0,VALID,23.8889,VALID,359,VALID,0,
2013-02-06, 02:36:04,VALID,1010.51,VALID,0,VALID,104,VALID,0,VALID,23.8694,VALID,359,VALID,0,
2013-02-06, 02:37:04,VALID,1010.52,VALID,0,VALID,104,VALID,0,VALID,23.8694,VALID,359,VALID,0,
2013-02-06, 02:38:04,VALID,1010.53,VALID,0,VALID,104,VALID,0,VALID,23.8694,VALID,359,VALID,0,
2013-02-06, 02:39:04,VALID,1010.55,VALID,0,VALID,104,VALID,0,VALID,23.8499,VALID,359,VALID,0,
2013-02-06, 02:40:04,VALID,1010.53,VALID,0,VALID,104,VALID,0,VALID,23.8694,VALID,359,VALID,0,
2013-02-06, 02:41:04,VALID,1010.54,VALID,0,VALID,104,VALID,0,VALID,23.8499,VALID,359,VALID,0,
2013-02-06, 02:42:04,VALID,1010.54,VALID,0,VALID,104,VALID,0.112112,VALID,23.8889,VALID,359,VALID,0,
2013-02-06, 02:43:04,VALID,1010.51,VALID,0,VALID,104,VALID,0,VALID,23.8694,VALID,360,VALID,0,
2013-02-06, 02:44:04,VALID,1010.54,VALID,0,VALID,104,VALID,0,VALID,23.8286,VALID,360,VALID,0,
2013-02-06, 02:45:04,VALID,1010.52,VALID,0,VALID,104,VALID,0,VALID,23.8676,VALID,360,VALID,0,
2013-02-06, 02:46:04,VALID,1010.52,VALID,0,VALID,104,VALID,0,VALID,23.8694,VALID,360,VALID,0,
2013-02-06, 02:47:04,VALID,1010.53,VALID,0,VALID,104,VALID,0.112112,VALID,23.8694,VALID,360,VALID,0,
2013-02-06, 02:48:04,VALID,1010.5,VALID,0,VALID,104,VALID,0,VALID,23.8499,VALID,360,VALID,0,
2013-02-06, 02:49:04,VALID,1010.5,VALID,0,VALID,104,VALID,0,VALID,23.8889,VALID,360,VALID,0,
2013-02-06, 02:50:04,VALID,1010.5,VALID,0,VALID,104,VALID,0,VALID,23.8889,VALID,360,VALID,0,
2013-02-06, 02:51:04,VALID,1010.53,VALID,0,VALID,104,VALID,0,VALID,23.8694,VALID,360,VALID,0,
2013-02-06, 02:52:04,VALID,1010.53,VALID,0,VALID,104,VALID,0,VALID,23.8676,VALID,360,VALID,0,
2013-02-06, 02:53:04,VALID,1010.54,VALID,0,VALID,104,VALID,0,VALID,23.8676,VALID,360,VALID,0,
2013-02-06, 02:54:04,VALID,1010.55,VALID,0,VALID,104,VALID,0,VALID,23.8889,VALID,360,VALID,0,
2013-02-06, 02:55:04,VALID,1010.54,VALID,0,VALID,104,VALID,0,VALID,23.8889,VALID,360,VALID,0,
2013-02-06, 02:56:04,VALID,1010.55,VALID,0,VALID,104,VALID,0,VALID,23.9084,VALID,360,VALID,0,
2013-02-06, 02:57:04,VALID,1010.56,VALID,0,VALID,104,VALID,0,VALID,23.9084,VALID,360,VALID,0,
2013-02-06, 02:58:04,VALID,1010.58,VALID,0,VALID,104,VALID,0,VALID,23.8889,VALID,360,VALID,0,
2013-02-06, 02:59:04,VALID,1010.59,VALID,0,VALID,104,VALID,0,VALID,23.9278,VALID,360,VALID,0,
2013-02-06, 03:00:04,VALID,1010.61,VALID,0,VALID,104,VALID,0,VALID,23.9278,VALID,360,VALID,0,
2013-02-06, 03:01:04,VALID,1010.6,VALID,0,VALID,104,VALID,0,VALID,23.9278,VALID,360,VALID,0,
2013-02-06, 03:02:04,VALID,1010.61,VALID,0,VALID,104,VALID,0,VALID,23.9084,VALID,360,VALID,0,
2013-02-06, 03:03:04,VALID,1010.62,VALID,0,VALID,104,VALID,0,VALID,23.9278,VALID,360,VALID,0,
2013-02-06, 03:04:04,VALID,1010.61,VALID,0,VALID,104,VALID,0,VALID,23.9084,VALID,360,VALID,0,
2013-02-06, 03:05:04,VALID,1010.64,VALID,0,VALID,104,VALID,0,VALID,23.8889,VALID,360,VALID,0,
2013-02-06, 03:06:04,VALID,1010.64,VALID,0,VALID,104,VALID,0,VALID,23.8889,VALID,360,VALID,0,
2013-02-06, 03:07:04,VALID,1010.62,VALID,0,VALID,104,VALID,0.112112,VALID,23.9084,VALID,360,VALID,0,
2013-02-06, 03:08:04,VALID,1010.64,VALID,0,VALID,104,VALID,0,VALID,23.8889,VALID,360,VALID,0,
2013-02-06, 03:09:04,VALID,1010.6,VALID,0,VALID,104,VALID,0.112112,VALID,23.9278,VALID,360,VALID,0,
2013-02-06, 03:10:04,VALID,1010.62,VALID,0,VALID,104,VALID,0,VALID,23.9278,VALID,360,VALID,0,
2013-02-06, 03:11:04,VALID,1010.61,VALID,0,VALID,104,VALID,0,VALID,23.8871,VALID,360,VALID,0,
2013-02-06, 03:12:04,VALID,1010.61,VALID,0,VALID,104,VALID,0,VALID,23.9278,VALID,360,VALID,0,
2013-02-06, 03:13:04,VALID,1010.6,VALID,0,VALID,104,VALID,0,VALID,23.9278,VALID,360,VALID,0,
2013-02-06, 03:14:04,VALID,1010.6,VALID,0,VALID,104,VALID,0,VALID,23.9278,VALID,360,VALID,0,
2013-02-06, 03:15:04,VALID,1010.63,VALID,0,VALID,104,VALID,0,VALID,23.9278,VALID,360,VALID,0,
2013-02-06, 03:16:04,VALID,1010.62,VALID,0,VALID,104,VALID,0.112112,VALID,23.9668,VALID,360,VALID,0,
2013-02-06, 03:17:04,VALID,1010.64,VALID,0,VALID,104,VALID,0,VALID,23.9473,VALID,360,VALID,0,
2013-02-06, 03:18:04,VALID,1010.66,VALID,0,VALID,104,VALID,0,VALID,23.9473,VALID,360,VALID,0,
2013-02-06, 03:19:04,VALID,1010.66,VALID,0,VALID,104,VALID,0,VALID,23.9473,VALID,360,VALID,0,
2013-02-06, 03:20:04,VALID,1010.65,VALID,0,VALID,104,VALID,0,VALID,23.9668,VALID,360,VALID,0,
2013-02-06, 03:21:04,VALID,1010.62,VALID,0,VALID,104,VALID,0,VALID,23.9278,VALID,360,VALID,0,
2013-02-06, 03:22:04,VALID,1010.64,VALID,0,VALID,104,VALID,0,VALID,23.9473,VALID,360,VALID,0,
2013-02-06, 03:23:04,VALID,1010.62,VALID,0,VALID,104,VALID,0,VALID,23.9473,VALID,360,VALID,0,
2013-02-06, 03:24:04,VALID,1010.63,VALID,0,VALID,104,VALID,0,VALID,23.9473,VALID,360,VALID,0,
2013-02-06, 03:25:04,VALID,1010.62,VALID,0,VALID,104,VALID,0,VALID,23.9473,VALID,360,VALID,0,
2013-02-06, 03:26:04,VALID,1010.67,VALID,0,VALID,104,VALID,0,VALID,23.9278,VALID,360,VALID,0,
2013-02-06, 03:27:04,VALID,1010.68,VALID,0,VALID,104,VALID,0,VALID,23.8889,VALID,360,VALID,0,
2013-02-06, 03:28:04,VALID,1010.69,VALID,0,VALID,104,VALID,0,VALID,23.9084,VALID,360,VALID,0,
2013-02-06, 03:29:04,VALID,1010.65,VALID,0,VALID,104,VALID,0,VALID,23.8889,VALID,360,VALID,0,
2013-02-06, 03:30:04,VALID,1010.65,VALID,0,VALID,104,VALID,0.112112,VALID,23.8889,VALID,360,VALID,0,
2013-02-06, 03:31:04,VALID,1010.61,VALID,0,VALID,104,VALID,0,VALID,23.8694,VALID,360,VALID,0,
2013-02-06, 03:32:04,VALID,1010.62,VALID,0,VALID,104,VALID,0,VALID,23.8481,VALID,360,VALID,0,
2013-02-06, 03:33:04,VALID,1010.61,VALID,0,VALID,104,VALID,0,VALID,23.8889,VALID,360,VALID,0,
2013-02-06, 03:34:04,VALID,1010.63,VALID,0,VALID,104,VALID,0,VALID,23.9084,VALID,360,VALID,0,
2013-02-06, 03:35:04,VALID,1010.6,VALID,0,VALID,104,VALID,0,VALID,23.9084,VALID,360,VALID,0,
2013-02-06, 03:36:04,VALID,1010.62,VALID,0,VALID,104,VALID,0.112112,VALID,23.8694,VALID,360,VALID,0,
2013-02-06, 03:37:04,VALID,1010.63,VALID,0,VALID,104,VALID,0,VALID,23.8676,VALID,360,VALID,0,
2013-02-06, 03:38:04,VALID,1010.62,VALID,0,VALID,104,VALID,0,VALID,23.8694,VALID,360,VALID,0,
2013-02-06, 03:39:04,VALID,1010.65,VALID,0,VALID,104,VALID,0,VALID,23.8889,VALID,360,VALID,0,
2013-02-06, 03:40:04,VALID,1010.65,VALID,0,VALID,104,VALID,0,VALID,23.8694,VALID,360,VALID,0,
2013-02-06, 03:41:04,VALID,1010.65,VALID,0,VALID,104,VALID,0,VALID,23.8889,VALID,360,VALID,0,
2013-02-06, 03:42:04,VALID,1010.68,VALID,0,VALID,104,VALID,0,VALID,23.9084,VALID,360,VALID,0,
2013-02-06, 03:43:04,VALID,1010.66,VALID,0,VALID,104,VALID,0,VALID,23.9084,VALID,360,VALID,0,
2013-02-06, 03:44:04,VALID,1010.68,VALID,0,VALID,104,VALID,0,VALID,23.9084,VALID,360,VALID,0,
2013-02-06, 03:45:04,VALID,1010.68,VALID,0,VALID,104,VALID,0,VALID,23.8889,VALID,360,VALID,0,
2013-02-06, 03:46:04,VALID,1010.72,VALID,0,VALID,104,VALID,0,VALID,23.8889,VALID,360,VALID,0,
2013-02-06, 03:47:04,VALID,1010.72,VALID,0,VALID,104,VALID,0,VALID,23.8676,VALID,360,VALID,0,
2013-02-06, 03:48:04,VALID,1010.71,VALID,0,VALID,104,VALID,0,VALID,23.8889,VALID,360,VALID,0,
2013-02-06, 03:49:04,VALID,1010.7,VALID,0,VALID,104,VALID,0,VALID,23.8889,VALID,360,VALID,0,
2013-02-06, 03:50:04,VALID,1010.7,VALID,0,VALID,104,VALID,0,VALID,23.8889,VALID,360,VALID,0,
2013-02-06, 03:51:04,VALID,1010.72,VALID,0,VALID,104,VALID,0,VALID,23.8889,VALID,360,VALID,0,
2013-02-06, 03:52:04,VALID,1010.73,VALID,0,VALID,104,VALID,0,VALID,23.8694,VALID,360,VALID,0,
2013-02-06, 03:53:04,VALID,1010.75,VALID,0,VALID,104,VALID,0,VALID,23.8676,VALID,360,VALID,0,
2013-02-06, 03:54:04,VALID,1010.73,VALID,0,VALID,104,VALID,0,VALID,23.8694,VALID,360,VALID,0,
2013-02-06, 03:55:04,VALID,1010.75,VALID,0,VALID,104,VALID,0,VALID,23.8499,VALID,360,VALID,0,
2013-02-06, 03:56:04,VALID,1010.76,VALID,0,VALID,104,VALID,0,VALID,23.8499,VALID,360,VALID,0,
2013-02-06, 03:57:04,VALID,1010.76,VALID,0,VALID,104,VALID,0,VALID,23.8304,VALID,360,VALID,0,
2013-02-06, 03:58:04,VALID,1010.75,VALID,0,VALID,104,VALID,0,VALID,23.8304,VALID,360,VALID,0,
2013-02-06, 03:59:04,VALID,1010.77,VALID,0,VALID,104,VALID,0.112112,VALID,23.8304,VALID,360,VALID,0,
2013-02-06, 04:00:04,VALID,1010.74,VALID,0,VALID,104,VALID,0,VALID,23.7896,VALID,360,VALID,0,
2013-02-06, 04:01:04,VALID,1010.75,VALID,0,VALID,104,VALID,0,VALID,23.7701,VALID,360,VALID,0,
2013-02-06, 04:02:04,VALID,1010.75,VALID,0,VALID,104,VALID,0,VALID,23.7701,VALID,360,VALID,0,
2013-02-06, 04:03:04,VALID,1010.77,VALID,0,VALID,104,VALID,0,VALID,23.7914,VALID,360,VALID,0,
2013-02-06, 04:04:04,VALID,1010.73,VALID,0,VALID,104,VALID,0,VALID,23.772,VALID,360,VALID,0,
2013-02-06, 04:05:04,VALID,1010.74,VALID,0,VALID,104,VALID,0,VALID,23.7525,VALID,360,VALID,0,
2013-02-06, 04:06:04,VALID,1010.74,VALID,0,VALID,104,VALID,0,VALID,23.772,VALID,360,VALID,0,
2013-02-06, 04:07:04,VALID,1010.76,VALID,0,VALID,104,VALID,0,VALID,23.7525,VALID,360,VALID,0,